Date,TemperatureHighF,TemperatureAvgF,TemperatureLowF,DewpointHighF,DewpointAvgF,DewpointLowF,HumidityHigh,HumidityAvg,HumidityLow,PressureMaxIn,PressureMinIn,WindSpeedMaxMPH,WindSpeedAvgMPH,GustSpeedMaxMPH,PrecipitationSumIn
2013-10-1,69.0,66.3,57.0,-99.9,-99.9,-99.9,0,0,100,29.93,29.84,8,7,0,0.00
2013-10-2,80.0,74.6,64.0,-99.9,-99.9,-99.9,0,0,100,29.92,29.80,18,10,0,0.00
2013-10-3,76.0,66.6,63.0,-99.9,-99.9,-99.9,0,0,100,30.05,29.92,13,9,0,0.00
2013-10-4,69.0,63.4,60.0,-99.9,-99.9,-99.9,0,0,100,30.04,29.99,11,5,0,0.00
2013-10-5,70.0,63.4,60.0,-99.9,-99.9,-99.9,0,0,100,30.08,30.01,11,5,0,0.00
2013-10-6,65.0,62.2,61.0,-99.9,-99.9,-99.9,0,0,100,30.16,30.07,15,8,0,0.00
2013-10-7,73.0,69.4,65.0,-99.9,-99.9,-99.9,0,0,100,30.09,29.82,24,16,0,0.00
2013-10-8,69.0,62.5,55.0,-99.9,-99.9,-99.9,0,0,100,30.30,29.84,20,11,0,0.00
2013-10-9,55.0,53.0,52.0,-99.9,-99.9,-99.9,0,0,100,30.36,30.30,9,7,0,0.00
2013-10-15,66.0,61.3,55.0,-99.9,-99.9,-99.9,0,0,100,30.21,30.14,13,6,0,0.00
2013-10-16,64.0,57.8,51.0,-99.9,-99.9,-99.9,0,0,100,30.14,29.88,11,7,0,0.00
2013-10-17,69.0,63.3,59.0,-99.9,-99.9,-99.9,0,0,100,29.88,29.72,19,7,0,0.00
2013-10-18,69.0,66.2,64.0,-99.9,-99.9,-99.9,0,0,100,29.82,29.61,20,12,0,0.00
2013-10-19,63.0,61.1,58.0,-99.9,-99.9,-99.9,0,0,100,29.96,29.73,16,10,0,0.00
2013-10-20,64.0,59.6,57.0,-99.9,-99.9,-99.9,0,0,100,29.91,29.67,16,9,0,0.00
2013-10-21,65.0,61.4,54.0,-99.9,-99.9,-99.9,0,0,100,30.09,30.01,17,9,0,0.00
2013-10-22,64.0,62.2,56.0,-99.9,-99.9,-99.9,0,0,100,29.84,29.68,15,11,0,0.00
2013-10-23,56.0,51.3,47.0,-99.9,-99.9,-99.9,0,0,100,29.76,29.55,16,8,0,0.00
2013-10-24,55.0,49.2,45.0,-99.9,-99.9,-99.9,0,0,100,29.86,29.60,17,10,0,0.00
2013-10-25,52.0,47.8,43.0,-99.9,-99.9,-99.9,0,0,100,30.14,29.86,19,10,0,0.00
2013-10-26,58.0,54.6,45.0,-99.9,-99.9,-99.9,0,0,100,30.14,29.85,29,18,0,0.00
2013-10-27,58.0,53.1,47.0,-99.9,-99.9,-99.9,0,0,100,30.00,29.79,16,9,0,0.00
2013-10-28,61.0,53.6,45.0,-99.9,-99.9,-99.9,0,0,100,30.29,30.04,15,11,0,0.00
2013-10-29,55.0,45.9,40.0,-99.9,-99.9,-99.9,0,0,100,30.38,30.29,15,9,0,0.00
2013-10-30,58.0,51.0,42.0,-99.9,-99.9,-99.9,0,0,100,30.34,30.16,11,5,0,0.00
2013-10-31,65.0,58.4,48.0,-99.9,-99.9,-99.9,0,0,100,30.20,29.86,22,11,0,0.00